GOSAT (IBUKI)

Last updated on Sat Apr 13 2024 01:02:24 GMT+0100 (British Summer Time)

1 33492U 09002A 24103.32366859 .00000802 00000+0 14977-3 0 9994 2 33492 98.0297 216.0821 0001345 95.3177 264.8181 14.67571678814738
UTC large
Height (km)
Speed (km/s)
/
Latitude / Longitude
Inclination (degrees)
Orbital Period (minutes)
Azimuth
Elevation
Range (km)
Doppler Factor

Next 0 passes for location: London (51.5072 / 0.1276)

Sorry there are no passes over London.